Weather reports worldwide

Advertisment
Putbus, Germany (10093): temperature & dewpoint: 11.01.2021 22:00:00 - 17.01.2021 22:00:00 (CET)Putbus, Germany (10093): temperature 5cm & temperature -5cm: 11.01.2021 22:00:00 - 17.01.2021 22:00:00 (CET)Putbus, Germany (10093): temperature -20cm & temperature -100cm: 11.01.2021 22:00:00 - 17.01.2021 22:00:00 (CET)Putbus, Germany (10093): wind speed & gusts: 11.01.2021 22:00:00 - 17.01.2021 22:00:00 (CET)Putbus, Germany (10093): wind direction: 11.01.2021 22:00:00 - 17.01.2021 22:00:00 (CET)Putbus, Germany (10093): reduced air pressure: 11.01.2021 22:00:00 - 17.01.2021 22:00:00 (CET)Putbus, Germany (10093): visibility: 11.01.2021 22:00:00 - 17.01.2021 22:00:00 (CET)Putbus, Germany (10093): sunshine duration: 11.01.2021 22:00:00 - 17.01.2021 22:00:00 (CET)Putbus, Germany (10093): precipitation: 11.01.2021 22:00:00 - 17.01.2021 22:00:00 (CET)
Date & Time tt [°C] td [°C] tt 5cm [°C] tt -5cm [°C] tt -20cm [°C] tt -100cm [°C] ff [km/h] ff [kn] fx [km/h] fx [kn] dd ppp [hPa] vv [km] sd [min] rr [mm]
17.01.2021 22:00:00 -1,7 -3,5 -1,7 -0,3 0,8 5,2 6 3 14 7 S 1021,6 13 0 0,0
17.01.2021 21:00:00 -1,4 -3,3 -1,6 -0,2 0,8 5,2 8 4 14 7 S 1021,6 15 0 0,0
17.01.2021 20:00:00 -1,4 -3,2 -1,6 -0,2 0,8 5,2 5 3 15 8 S 1021,9 14 0 0,0
17.01.2021 19:00:00 -1,1 -3,0 -1,2 -0,1 0,8 5,2 9 5 16 9 SSW 1021,7 11 0 0,0
17.01.2021 18:00:00 -1,0 -2,5 -1,0 -0,1 0,8 5,2 4 2 9 5 SSE 1021,6 5 0 0,0
17.01.2021 17:00:00 -1,2 -2,9 -1,4 -0,1 0,8 5,2 3 2 9 5 E 1021,4 11 0 0,0
17.01.2021 16:00:00 -1,1 -3,3 -1,2 -0,1 0,8 5,2 5 3 14 7 SSE 1021,0 14 0 0,0
17.01.2021 15:00:00 -0,9 -3,2 -0,7 -0,1 0,8 5,2 6 3 18 10 SE 1020,6 17 0 0,0
17.01.2021 14:00:00 -0,7 -3,1 -0,3 -0,1 0,8 5,2 8 4 18 10 SE 1020,4 28 0 0,0
17.01.2021 13:00:00 -0,1 -3,8 0,2 -0,2 0,8 5,2 7 4 12 7 SSE 1020,6 55 0 0,0
17.01.2021 12:00:00 -0,3 -3,4 0,1 -0,2 0,8 5,2 7 4 16 9 SE 1020,6 53 0 0,0
17.01.2021 11:00:00 -0,3 -3,5 -0,2 -0,3 0,8 5,2 9 5 18 10 SE 1020,3 53 0 0,0
17.01.2021 10:00:00 -0,7 -2,5 -0,7 -0,4 0,8 5,2 9 5 18 10 SSE 1019,8 44 0 0,0
17.01.2021 09:00:00 -0,7 -2,3 -0,9 -0,4 0,8 5,2 9 5 16 9 SSE 1019,3 41 0 0,0
17.01.2021 08:00:00 -1,1 -2,3 -1,5 -0,5 0,8 5,2 6 3 10 6 W 1018,8 29 0 0,0
17.01.2021 07:00:00 -1,4 -2,9 -1,5 -0,5 0,8 5,2 4 2 7 4 WSW 1018,3 39 0 0,0
17.01.2021 06:00:00 -1,4 -2,9 -1,8 -0,7 0,8 5,3 3 2 11 6 NNE 1017,9 51 0 0,0
17.01.2021 05:00:00 -1,9 -3,8 -2,9 -0,8 0,8 5,3 8 4 12 7 WNW 1017,7 52 0 0,0
17.01.2021 04:00:00 -1,1 -3,5 -1,8 -0,7 0,8 5,3 9 5 14 8 NNW 1017,6 63 0 0,0
17.01.2021 03:00:00 -1,9 -3,6 -2,2 -0,9 0,9 5,3 7 4 11 6 WNW 1018,1 51 0 0,0
17.01.2021 02:00:00 -3,4 -4,8 -6,0 -1,3 0,9 5,3 8 4 12 6 WNW 1018,1 53 0 0,0
17.01.2021 01:00:00 -2,9 -4,4 -5,6 -1,1 0,9 5,3 8 4 13 7 WNW 1018,4 52 0 0,0
17.01.2021 00:00:00 -1,6 -4,0 -4,6 -0,7 0,9 5,3 9 5 17 9 WNW 1018,8 75 0 0,0
16.01.2021 23:00:00 -0,7 -3,5 -1,0 -0,4 0,9 5,3 13 7 22 12 WNW 1018,7 71 0 0,0
16.01.2021 22:00:00 -0,8 -3,8 -1,0 -0,5 0,9 5,3 13 7 23 13 W 1018,9 75 0 0,0
16.01.2021 21:00:00 -0,8 -3,7 -1,2 -0,7 0,9 5,3 15 8 24 13 WNW 1019,1 75 0 0,0
16.01.2021 20:00:00 -1,3 -4,1 -3,0 -0,8 0,9 5,3 14 8 22 12 WNW 1019,1 75 0 0,0
16.01.2021 19:00:00 -1,0 -4,0 -1,9 -0,8 1,0 5,3 14 7 30 16 NW 1019,4 66 0 0,0
16.01.2021 18:00:00 -1,3 -4,3 -2,8 -0,7 1,0 5,3 16 8 24 13 NW 1019,5 72 0 0,0
16.01.2021 17:00:00 -1,5 -3,6 -2,8 -0,4 1,0 5,3 18 10 28 15 W 1019,8 58 0 0,0
16.01.2021 16:00:00 -1,4 -4,0 -2,1 -0,2 1,0 5,3 21 11 29 16 W 1020,2 69 2 0,0
16.01.2021 15:00:00 -1,1 -4,2 -1,1 -0,2 1,0 5,3 19 10 34 18 WNW 1020,5 75 43 0,0
16.01.2021 14:00:00 -1,3 -4,5 -0,9 -0,1 1,0 5,3 22 12 35 19 NW 1020,7 75 27 0,0
16.01.2021 13:00:00 -1,0 -3,8 -0,4 -0,2 1,0 5,3 23 12 33 18 NW 1021,2 74 5 0,0
16.01.2021 12:00:00 -1,3 -4,4 -0,3 -0,4 1,0 5,3 18 10 33 18 WNW 1021,7 74 31 0,0
16.01.2021 11:00:00 -2,2 -6,2 -1,7 -0,6 1,0 5,3 15 8 27 15 NNW 1022,6 53 51 0,0
16.01.2021 10:00:00 -3,5 -6,6 -4,3 -0,8 1,1 5,3 9 5 18 10 NW 1022,8 73 0 0,0
16.01.2021 09:00:00 -3,8 -7,9 -4,6 -0,8 1,1 5,3 11 6 25 14 NW 1023,2 75 0 0,0
16.01.2021 08:00:00 -3,2 -6,8 -3,6 -0,6 1,1 5,3 14 8 26 14 NW 1023,3 75 0 0,0
16.01.2021 07:00:00 -2,7 -5,8 -2,8 -0,5 1,1 5,3 11 6 18 10 NNW 1023,6 64 0 0,0
16.01.2021 06:00:00 -3,2 -6,5 -3,5 -0,6 1,2 5,4 7 4 15 8 NNW 1023,9 56 0 0,0
16.01.2021 05:00:00 -3,9 -7,3 -6,0 -0,6 1,2 5,4 10 6 22 12 N 1024,3 65 0 0,0
16.01.2021 04:00:00 -3,7 -7,3 -5,5 -0,4 1,2 5,4 13 7 21 11 N 1024,6 65 0 0,0
16.01.2021 03:00:00 -3,6 -6,9 -5,5 -0,2 1,2 5,4 11 6 20 11 NNW 1024,7 62 0 0,0
16.01.2021 02:00:00 -2,9 -6,7 -3,9 -0,1 1,2 5,4 16 8 26 14 N 1025,1 60 0 0,0
16.01.2021 01:00:00 -3,0 -6,6 -4,8 0,0 1,3 5,4 13 7 21 11 N 1025,1 57 0 0,0
16.01.2021 00:00:00 -2,9 -7,3 -4,4 0,1 1,3 5,4 13 7 35 19 N 1025,5 67 0 0,0
15.01.2021 23:00:00 -2,6 -6,8 -3,3 0,1 1,3 5,4 19 10 29 16 NNW 1025,6 63 0 0,0
15.01.2021 22:00:00 -2,6 -6,5 -3,0 0,1 1,3 5,4 18 10 34 19 NNW 1025,6 61 0 0,0
15.01.2021 21:00:00 -2,6 -7,1 -2,9 0,2 1,3 5,4 21 11 33 18 N 1025,7 68 0 0,0
15.01.2021 20:00:00 -3,0 -7,9 -3,6 0,2 1,3 5,4 14 8 26 14 NNW 1025,9 75 0 0,0
15.01.2021 19:00:00 -3,1 -7,5 -4,0 0,2 1,3 5,4 13 7 25 14 NNW 1025,7 75 0 0,0
15.01.2021 18:00:00 -2,9 -7,0 -2,9 0,2 1,4 5,4 14 8 23 13 NNW 1025,6 57 0 0,0
15.01.2021 17:00:00 -3,0 -7,3 -3,3 0,2 1,4 5,4 16 9 25 14 NW 1025,2 75 0 0,0
15.01.2021 16:00:00 -2,8 -7,1 -2,5 0,3 1,4 5,4 18 10 29 16 NNW 1024,9 52 0 0,0
15.01.2021 15:00:00 -2,8 -6,7 -2,3 0,3 1,4 5,4 16 9 34 19 N 1024,7 32 0 0,0
15.01.2021 14:00:00 -2,5 -7,2 -1,6 0,3 1,4 5,4 21 11 33 18 N 1024,4 64 32 0,0
15.01.2021 13:00:00 -2,4 -7,8 -2,1 0,3 1,4 5,4 20 11 33 18 N 1024,4 71 54 0,0
15.01.2021 12:00:00 -1,4 -6,6 -1,5 0,3 1,4 5,4 19 10 32 17 N 1024,4 60 44 0,0
15.01.2021 11:00:00 -1,3 -6,0 -0,6 0,3 1,4 5,4 21 11 30 16 N 1024,2 74 28 0,0
15.01.2021 10:00:00 -1,1 -5,0 -1,1 0,3 1,4 5,4 13 7 31 17 N 1023,6 74 0 0,0
15.01.2021 09:00:00 -0,8 -3,8 -0,9 0,3 1,4 5,4 18 10 29 16 N 1023,0 52 0 0,1
15.01.2021 08:00:00 -0,9 -3,0 -1,0 0,3 1,5 5,4 13 7 25 14 NNW 1022,3 18 0 0,0
15.01.2021 07:00:00 -0,8 -4,3 -0,9 0,3 1,5 5,4 15 8 23 12 NW 1021,8 55 0 0,0
15.01.2021 06:00:00 -0,7 -5,1 -0,9 0,3 1,5 5,4 17 9 27 15 NNW 1021,7 69 0 0,0
15.01.2021 05:00:00 -0,6 -4,1 -0,8 0,3 1,5 5,4 16 8 25 14 N 1021,8 61 0 0,0
15.01.2021 04:00:00 -0,5 -4,0 -0,8 0,3 1,5 5,4 12 6 22 12 NNW 1021,8 60 0 0,0
15.01.2021 03:00:00 -0,5 -3,3 -0,7 0,4 1,6 5,4 13 7 28 15 NNW 1021,8 56 0 0,0
15.01.2021 02:00:00 -0,2 -2,8 -0,4 0,4 1,6 5,4 16 8 23 12 N 1021,5 44 0 0,0
15.01.2021 01:00:00 0,1 -2,6 -0,2 0,4 1,6 5,5 13 7 23 13 N 1021,6 59 0 0,0
15.01.2021 00:00:00 0,5 -2,3 0,0 0,4 1,7 5,5 11 6 24 13 NNW 1021,5 51 0 0,0
14.01.2021 23:00:00 0,6 -1,9 0,0 0,4 1,7 5,5 14 7 24 13 N 1021,3 43 0 0,0
14.01.2021 22:00:00 0,9 -1,8 0,2 0,5 1,8 5,5 16 8 31 17 N 1021,1 52 0 0,0
14.01.2021 21:00:00 0,5 -1,9 -1,1 0,5 1,9 5,5 16 9 24 13 NNE 1020,8 48 0 0,0
14.01.2021 20:00:00 0,7 -1,5 -1,0 0,6 2,0 5,5 14 7 27 15 N 1020,5 46 0 0,0
14.01.2021 19:00:00 1,7 -1,1 1,1 1,3 2,0 5,5 19 11 27 15 N 1020,3 43 0 0,0
14.01.2021 18:00:00 2,0 -0,8 1,2 1,5 2,0 5,5 14 7 23 12 N 1020,0 56 0 0,0
14.01.2021 17:00:00 2,1 -0,8 1,2 1,6 1,9 5,5 14 8 26 14 N 1019,6 57 0 0,0
14.01.2021 16:00:00 2,0 0,0 1,3 1,9 1,8 5,5 13 7 28 15 NNE 1018,9 58 0 0,1
14.01.2021 15:00:00 2,2 0,6 2,1 2,3 1,6 5,5 20 11 36 19 NNE 1018,2 53 9 0,0
14.01.2021 14:00:00 2,5 0,9 3,0 1,8 1,5 5,5 23 13 35 19 NNE 1017,7 59 9 0,0
14.01.2021 13:00:00 1,8 0,7 1,8 1,1 1,4 5,5 21 12 32 17 N 1017,2 37 0 0,2
14.01.2021 12:00:00 1,8 0,6 1,6 0,4 1,4 5,5 20 11 32 17 N 1017,0 32 0 0,2
14.01.2021 11:00:00 1,8 0,3 1,2 0,3 1,4 5,5 16 9 29 16 N 1016,3 11 0 0,1
14.01.2021 10:00:00 1,9 -0,3 0,9 0,3 1,4 5,5 19 10 33 18 N 1015,4 35 0 0,0
14.01.2021 09:00:00 1,7 -0,4 0,3 0,3 1,4 5,5 18 10 32 17 N 1014,6 42 0 0,0
14.01.2021 08:00:00 1,6 -0,3 0,2 0,3 1,5 5,5 14 8 24 13 N 1013,5 35 0 0,0
14.01.2021 07:00:00 1,4 -1,0 -0,3 0,3 1,5 5,5 18 10 29 16 N 1012,5 47 0 0,0
14.01.2021 06:00:00 1,4 -0,6 0,0 0,3 1,5 5,5 22 12 35 19 NNE 1011,6 41 0 0,9
14.01.2021 05:00:00 1,7 0,1 1,0 0,4 1,5 5,5 21 11 41 22 NNE 1010,5 16 0 0,0
14.01.2021 04:00:00 2,4 -0,3 1,0 0,4 1,5 5,5 21 11 39 21 NNE 1009,0 55 0 0,4
14.01.2021 03:00:00 2,8 -1,3 1,3 0,4 1,5 5,6 31 17 50 27 ENE 1007,3 55 0 0,0
14.01.2021 02:00:00 2,0 -0,2 0,9 0,4 1,6 5,6 33 18 52 28 NE 1005,2 8 0 0,1
14.01.2021 01:00:00 1,5 0,2 0,8 0,4 1,6 5,6 29 16 44 24 NE 1003,3 22 0 0,1
14.01.2021 00:00:00 0,9 -0,1 0,2 0,4 1,6 5,6 20 11 29 16 NE 1001,7 17 0 0,1
13.01.2021 23:00:00 0,7 -0,5 0,0 0,5 1,6 5,6 15 8 20 11 NE 999,9 75 0 0,0
13.01.2021 22:00:00 0,2 -0,5 -0,4 0,5 1,6 5,6 10 5 17 9 N 998,3 30 0 0,0
13.01.2021 21:00:00 0,2 -0,3 0,0 0,5 1,7 5,6 10 5 15 8 N 997,1 16 0 0,1
13.01.2021 20:00:00 0,3 -0,4 -0,3 0,4 1,7 5,6 9 5 17 9 WNW 996,5 5 0 0,2
13.01.2021 19:00:00 0,1 -0,6 -0,2 0,5 1,7 5,6 9 5 18 10 W 995,8 7 0 0,3
13.01.2021 18:00:00 0,2 -0,5 0,0 0,5 1,8 5,6 12 6 23 13 WSW 995,9 26 0 0,3
13.01.2021 17:00:00 0,3 -0,6 0,1 0,7 1,9 5,6 23 12 37 20 WSW 996,2 2,0 0 0,0
13.01.2021 16:00:00 0,8 -0,1 0,2 0,7 1,9 5,6 16 9 43 23 SW 996,8 44 0 1,0
13.01.2021 15:00:00 1,2 0,3 0,7 1,3 1,9 5,6 20 11 42 23 SW 997,7 6 0 1,3
13.01.2021 14:00:00 1,2 0,2 0,7 1,5 1,8 5,6 22 12 44 24 SW 998,5 6 0 1,5
13.01.2021 13:00:00 2,3 0,4 1,9 1,9 1,7 5,6 19 11 37 20 SW 999,8 14 0 0,0
13.01.2021 12:00:00 2,5 0,2 2,3 1,4 1,6 5,6 22 12 36 19 SW 1001,0 35 1 0,0
13.01.2021 11:00:00 1,9 -0,1 1,7 0,4 1,6 5,6 20 11 38 21 WSW 1001,9 28 0 0,0
13.01.2021 10:00:00 1,5 0,0 1,1 0,4 1,6 5,6 20 11 34 19 WSW 1002,3 37 0 0,1
13.01.2021 09:00:00 1,7 0,1 1,2 0,4 1,6 5,6 14 8 33 18 WSW 1002,5 38 0 0,0
13.01.2021 08:00:00 1,9 0,2 1,0 0,4 1,6 5,6 22 12 39 21 W 1002,5 40 0 0,1
13.01.2021 07:00:00 1,7 -0,1 0,5 0,4 1,6 5,6 26 14 42 23 W 1002,4 40 0 0,0
13.01.2021 06:00:00 2,2 0,1 1,1 0,4 1,6 5,6 23 12 40 22 W 1002,5 36 0 0,0
13.01.2021 05:00:00 2,0 -0,4 0,8 0,4 1,7 5,6 24 13 46 25 W 1002,3 43 0 0,0
13.01.2021 04:00:00 2,2 -0,1 1,1 0,4 1,7 5,6 21 11 34 19 W 1002,5 38 0 0,1
13.01.2021 03:00:00 1,6 0,1 0,7 0,4 1,7 5,6 19 10 34 18 W 1002,4 37 0 0,4
13.01.2021 02:00:00 1,9 -0,5 1,0 0,4 1,8 5,6 20 11 34 18 W 1002,2 39 0 0,0
13.01.2021 01:00:00 1,7 -0,7 0,5 0,4 1,8 5,6 20 11 32 17 W 1002,3 40 0 0,1
13.01.2021 00:00:00 1,5 -0,8 0,2 0,4 1,8 5,6 22 12 31 17 W 1002,2 35 0 0,0
12.01.2021 23:00:00 0,8 -0,9 -0,3 0,4 1,9 5,6 16 9 29 16 W 1001,9 46 0 0,0
12.01.2021 22:00:00 1,0 -1,1 -0,6 0,5 2,0 5,6 19 10 30 16 W 1001,6 60 0 0,0
12.01.2021 21:00:00 1,1 -1,0 -0,3 0,5 2,0 5,6 20 11 29 16 WNW 1001,2 71 0 0,0
12.01.2021 20:00:00 0,8 -0,1 0,1 0,5 2,1 5,6 15 8 22 12 W 1000,4 50 0 0,0
12.01.2021 19:00:00 0,4 -0,4 0,1 0,6 2,2 5,6 16 9 45 24 WNW 999,9 20 0 0,7
12.01.2021 18:00:00 1,6 -1,1 1,1 0,6 2,3 5,6 13 7 21 12 SW 999,4 69 0 0,0
12.01.2021 17:00:00 1,1 -1,3 -0,3 0,4 2,5 5,6 11 6 16 8 WSW 999,5 66 1 0,0
12.01.2021 16:00:00 2,0 -1,4 -0,2 1,2 2,6 5,6 11 6 22 12 WSW 999,5 65 60 0,0
12.01.2021 15:00:00 2,9 -0,5 1,0 2,1 2,6 5,6 14 7 26 14 W 999,3 63 46 0,0
12.01.2021 14:00:00 3,4 0,2 3,5 2,3 2,5 5,6 14 8 23 12 W 999,2 65 45 0,0
12.01.2021 13:00:00 3,0 0,1 2,3 2,5 2,5 5,6 14 8 23 12 W 999,3 63 40 0,0
12.01.2021 12:00:00 3,1 0,9 2,2 1,7 2,5 5,6 10 5 18 10 W 999,6 50 39 0,0
12.01.2021 11:00:00 1,8 0,8 0,7 2,0 2,5 5,7 11 6 18 10 W 999,6 59 0 0,0
12.01.2021 10:00:00 2,3 1,0 2,1 2,0 2,5 5,7 11 6 20 11 W 999,3 75 0 0,0
12.01.2021 09:00:00 2,2 0,5 1,7 2,0 2,5 5,7 12 6 27 15 WNW 998,8 75 0 0,0
12.01.2021 08:00:00 2,5 0,8 1,9 2,2 2,5 5,7 17 9 25 14 WNW 998,4 71 0 0,0
12.01.2021 07:00:00 2,9 1,9 2,6 2,5 2,4 5,7 16 9 40 22 NW 997,6 22 0 1,4
12.01.2021 06:00:00 3,2 2,4 3,0 2,2 2,4 5,7 21 12 46 25 SW 996,8 10 0 0,8
12.01.2021 05:00:00 2,5 1,5 2,2 2,0 2,3 5,7 23 13 44 24 SW 997,0 10 0 0,7
12.01.2021 04:00:00 2,2 1,2 2,0 1,9 2,3 5,7 26 14 45 24 SSW 998,0 9 0 0,5
12.01.2021 03:00:00 2,2 1,2 1,9 1,9 2,3 5,7 26 14 47 25 SSW 999,1 10 0 0,7
12.01.2021 02:00:00 2,1 1,1 1,8 1,9 2,3 5,7 25 14 46 25 SSW 1000,1 7 0 0,7
12.01.2021 01:00:00 2,2 1,1 1,9 1,9 2,2 5,7 22 12 42 23 SSW 1001,3 9 0 0,2
12.01.2021 00:00:00 2,4 1,3 2,2 1,9 2,2 5,7 24 13 43 23 SSW 1002,4 9 0 0,0
11.01.2021 23:00:00 2,2 1,3 2,0 1,8 2,2 5,7 25 13 42 23 SSW 1003,6 5 0 0,0
11.01.2021 22:00:00 1,9 1,1 1,7 1,6 2,1 5,7 27 14 50 27 SSW 1004,7 4,4 0 0,3

tt = temperature
td = dewpoint
tt 5cm = temperature 5cm
tt -5cm = temperature -5cm
tt -20cm = temperature -20cm
tt -100cm = temperature -100cm
ff = wind speed
fx = gusts
dd = wind direction
ppp = reduced air pressure
vv = visibility
sd = sunshine duration
rr = precipitation

Next stations